| time (UTC) | temp F | wind direction | speed MPH | gust MPH | rain 1hr in | rain 24hr in | rain mn in | humidity % | barometer mb |
| 20260510144017 | 59 | 338 | 2.0 | 4.0 | 0.00 | 0.68 | 0.00 | 84 | 1013.8 |
| 20260510143018 | 59 | 315 | 1.0 | 3.0 | 0.00 | 0.68 | 0.00 | 85 | 1013.9 |
| 20260510142018 | 59 | 293 | 1.0 | 3.0 | 0.00 | 0.68 | 0.00 | 84 | 1013.9 |
| 20260510141039 | 59 | 315 | 3.0 | 6.0 | 0.00 | 0.68 | 0.00 | 84 | 1013.9 |
| 20260510140017 | 59 | 293 | 2.0 | 4.0 | 0.00 | 0.69 | 0.00 | 84 | 1014.0 |
| 20260510135038 | 59 | 315 | 2.0 | 7.0 | 0.00 | 0.69 | 0.00 | 84 | 1013.9 |
| 20260510134019 | 59 | 225 | 2.0 | 5.0 | 0.00 | 0.69 | 0.00 | 85 | 1013.8 |
| 20260510133019 | 58 | 270 | 2.0 | 8.0 | 0.00 | 0.69 | 0.00 | 86 | 1013.6 |
| 20260510132019 | 58 | 293 | 3.0 | 10.0 | 0.00 | 0.69 | 0.00 | 88 | 1013.5 |
| 20260510131020 | 57 | 90 | 1.0 | 6.0 | 0.00 | 0.69 | 0.00 | 89 | 1013.6 |
| 20260510130039 | 57 | 270 | 2.0 | 4.0 | 0.00 | 0.70 | 0.00 | 92 | 1013.5 |
| 20260510125019 | 56 | 293 | 2.0 | 4.0 | 0.00 | 0.70 | 0.00 | 94 | 1013.6 |
| 20260510124020 | 54 | 45 | 1.0 | 4.0 | 0.00 | 0.70 | 0.00 | 95 | 1013.7 |
| 20260510123019 | 54 | 315 | 2.0 | 5.0 | 0.00 | 0.70 | 0.00 | 96 | 1013.7 |
| 20260510122019 | 53 | 315 | 1.0 | 4.0 | 0.00 | 0.70 | 0.00 | 97 | 1013.7 |
| 20260510121019 | 53 | 315 | 1.0 | 4.0 | 0.00 | 0.70 | 0.00 | 97 | 1013.8 |
| 20260510120019 | 52 | 338 | 1.0 | 4.0 | 0.00 | 0.70 | 0.00 | 97 | 1013.8 |
| 20260510115019 | 52 | 315 | 1.0 | 4.0 | 0.00 | 0.70 | 0.00 | 97 | 1013.7 |
| 20260510114019 | 52 | 0.0 | 3.0 | 0.00 | 0.70 | 0.00 | 97 | 1013.5 | |
| 20260510113019 | 51 | 293 | 2.0 | 4.0 | 0.00 | 0.70 | 0.00 | 97 | 1013.7 |
| 20260510112019 | 51 | 293 | 1.0 | 5.0 | 0.00 | 0.70 | 0.00 | 97 | 1013.6 |
| 20260510111039 | 51 | 68 | 1.0 | 3.0 | 0.00 | 0.70 | 0.00 | 97 | 1012.6 |
| 20260510110019 | 51 | 45 | 1.0 | 3.0 | 0.00 | 0.70 | 0.00 | 97 | 1012.9 |
| 20260510105019 | 51 | 315 | 1.0 | 3.0 | 0.00 | 0.70 | 0.00 | 97 | 1012.9 |
| 20260510104019 | 51 | 315 | 1.0 | 3.0 | 0.00 | 0.70 | 0.00 | 97 | 1013.2 |
| 20260510103020 | 50 | 0.0 | 4.0 | 0.00 | 0.70 | 0.00 | 97 | 1012.7 | |
| 20260510102019 | 50 | 270 | 1.0 | 2.0 | 0.00 | 0.70 | 0.00 | 96 | 1013.0 |
| 20260510101019 | 50 | 0.0 | 1.0 | 0.00 | 0.70 | 0.00 | 96 | 1013.0 | |
| 20260510100019 | 50 | 0.0 | 1.0 | 0.00 | 0.70 | 0.00 | 96 | 1012.8 | |
| 20260510095019 | 50 | 68 | 1.0 | 2.0 | 0.00 | 0.70 | 0.00 | 96 | 1013.1 |
| 20260510094039 | 50 | 0.0 | 3.0 | 0.00 | 0.70 | 0.00 | 96 | 1013.0 | |
| 20260510093019 | 49 | 0.0 | 0.0 | 0.00 | 0.70 | 0.00 | 96 | 1013.2 | |
| 20260510092019 | 49 | 68 | 1.0 | 2.0 | 0.00 | 0.70 | 0.00 | 96 | 1012.6 |
| 20260510091039 | 48 | 0.0 | 0.0 | 0.00 | 0.70 | 0.00 | 96 | 1012.8 | |
| 20260510090019 | 48 | 0.0 | 0.0 | 0.00 | 0.70 | 0.00 | 96 | 1012.5 | |
| 20260510085019 | 48 | 0.0 | 0.0 | 0.00 | 0.70 | 0.00 | 96 | 1012.5 | |
| 20260510084039 | 49 | 0.0 | 0.0 | 0.00 | 0.70 | 0.00 | 96 | 1012.4 | |
| 20260510083020 | 49 | 0.0 | 0.0 | 0.00 | 0.70 | 0.00 | 96 | 1012.2 | |
| 20260510082019 | 49 | 0.0 | 0.0 | 0.00 | 0.70 | 0.00 | 96 | 1012.2 | |
| 20260510081019 | 50 | 0.0 | 1.0 | 0.00 | 0.70 | 0.00 | 96 | 1012.3 | |
| 20260510080019 | 50 | 0.0 | 2.0 | 0.00 | 0.70 | 0.00 | 96 | 1012.4 | |
| 20260510075019 | 50 | 0.0 | 0.0 | 0.00 | 0.70 | 0.00 | 96 | 1012.5 | |
| 20260510074019 | 51 | 0.0 | 1.0 | 0.00 | 0.70 | 0.00 | 96 | 1012.5 | |
| 20260510073019 | 51 | 0.0 | 2.0 | 0.00 | 0.70 | 0.00 | 96 | 1012.6 | |
| 20260510072019 | 51 | 0.0 | 2.0 | 0.00 | 0.70 | 0.00 | 96 | 1012.5 | |
| 20260510071019 | 51 | 0.0 | 0.0 | 0.00 | 0.70 | 0.00 | 96 | 1012.3 | |
| 20260510070019 | 51 | 0.0 | 2.0 | 0.00 | 0.70 | 0.00 | 96 | 1012.1 | |
| 20260510065019 | 51 | 0.0 | 0.0 | 0.00 | 0.70 | 0.00 | 96 | 1012.1 | |
| 20260510064019 | 51 | 0.0 | 0.0 | 0.00 | 0.70 | 0.00 | 96 | 1012.0 | |
| 20260510063019 | 51 | 0.0 | 1.0 | 0.00 | 0.70 | 0.00 | 96 | 1012.0 | |
| 20260510062019 | 51 | 0.0 | 0.0 | 0.00 | 0.70 | 0.00 | 96 | 1012.5 | |
| 20260510061019 | 51 | 0.0 | 0.0 | 0.00 | 0.70 | 0.00 | 96 | 1012.6 | |
| 20260510060019 | 51 | 0.0 | 0.0 | 0.00 | 0.70 | 0.00 | 96 | 1012.5 | |
| 20260510055019 | 51 | 0.0 | 0.0 | 0.00 | 0.70 | 0.00 | 96 | 1012.5 | |
| 20260510054018 | 51 | 0.0 | 0.0 | 0.00 | 0.70 | 0.00 | 96 | 1012.3 | |
| 20260510053019 | 51 | 0.0 | 0.0 | 0.00 | 0.70 | 0.00 | 96 | 1012.5 | |
| 20260510052018 | 51 | 0.0 | 0.0 | 0.00 | 0.70 | 0.00 | 96 | 1012.6 | |
| 20260510051038 | 51 | 0.0 | 0.0 | 0.00 | 0.70 | 0.00 | 96 | 1012.6 | |
| 20260510050018 | 51 | 0.0 | 0.0 | 0.00 | 0.70 | 0.00 | 96 | 1012.6 | |
| 20260510045018 | 51 | 0.0 | 0.0 | 0.00 | 0.70 | 0.00 | 96 | 1012.5 | |
| 20260510044100 | 51 | 0.0 | 0.0 | 0.00 | 0.70 | 0.00 | 96 | 1012.6 | |
| 20260510043018 | 51 | 0.0 | 0.0 | 0.00 | 0.70 | 0.00 | 96 | 1012.7 | |
| 20260510042018 | 51 | 0.0 | 0.0 | 0.01 | 0.70 | 0.00 | 96 | 1012.8 | |
| 20260510041018 | 51 | 0.0 | 0.0 | 0.01 | 0.70 | 0.00 | 96 | 1012.8 | |
| 20260510040018 | 51 | 0.0 | 0.0 | 0.01 | 0.70 | 0.70 | 96 | 1012.7 | |
| 20260510035019 | 51 | 0.0 | 0.0 | 0.01 | 0.70 | 0.70 | 96 | 1012.4 | |
| 20260510034019 | 51 | 0.0 | 2.0 | 0.01 | 0.70 | 0.70 | 96 | 1012.4 | |
| 20260510033019 | 51 | 0.0 | 2.0 | 0.01 | 0.70 | 0.70 | 96 | 1012.6 | |
| 20260510032019 | 51 | 0.0 | 1.0 | 0.00 | 0.69 | 0.69 | 96 | 1012.7 | |
| 20260510031019 | 51 | 45 | 2.0 | 4.0 | 0.00 | 0.69 | 0.69 | 95 | 1012.8 |
| 20260510030018 | 52 | 338 | 2.0 | 5.0 | 0.00 | 0.69 | 0.69 | 96 | 1013.1 |
| 20260510025019 | 52 | 0.0 | 2.0 | 0.00 | 0.69 | 0.69 | 96 | 1013.2 | |
| 20260510024059 | 52 | 68 | 1.0 | 3.0 | 0.00 | 0.69 | 0.69 | 96 | 1013.0 |
| 20260510023019 | 52 | 0 | 1.0 | 3.0 | 0.00 | 0.69 | 0.69 | 95 | 1013.0 |
| 20260510022018 | 52 | 0 | 1.0 | 5.0 | 0.00 | 0.69 | 0.69 | 96 | 1013.0 |
| 20260510021019 | 52 | 338 | 2.0 | 5.0 | 0.00 | 0.69 | 0.69 | 96 | 1013.0 |
| 20260510020039 | 52 | 158 | 1.0 | 5.0 | 0.00 | 0.69 | 0.69 | 96 | 1013.2 |
| 20260510015059 | 52 | 45 | 1.0 | 6.0 | 0.00 | 0.69 | 0.69 | 95 | 1013.2 |
| 20260510014018 | 52 | 68 | 1.0 | 4.0 | 0.01 | 0.69 | 0.69 | 95 | 1013.2 |
| 20260510013018 | 52 | 0 | 1.0 | 3.0 | 0.02 | 0.69 | 0.69 | 95 | 1013.3 |
| 20260510012018 | 52 | 45 | 2.0 | 7.0 | 0.03 | 0.69 | 0.69 | 95 | 1013.3 |
| 20260510011018 | 52 | 45 | 2.0 | 4.0 | 0.04 | 0.69 | 0.69 | 95 | 1013.1 |
| 20260510010019 | 52 | 68 | 2.0 | 4.0 | 0.05 | 0.69 | 0.69 | 95 | 1013.1 |
| 20260510005018 | 52 | 270 | 2.0 | 4.0 | 0.06 | 0.69 | 0.69 | 95 | 1013.0 |
| 20260510004038 | 51 | 68 | 1.0 | 3.0 | 0.06 | 0.68 | 0.68 | 95 | 1013.1 |
| 20260510003018 | 51 | 68 | 1.0 | 3.0 | 0.09 | 0.67 | 0.67 | 95 | 1013.1 |
| 20260510002018 | 50 | 0.0 | 0.0 | 0.09 | 0.66 | 0.66 | 94 | 1013.1 | |
| 20260510001018 | 51 | 0.0 | 2.0 | 0.11 | 0.65 | 0.65 | 94 | 1013.1 | |
| 20260510000018 | 50 | 0.0 | 2.0 | 0.12 | 0.64 | 0.64 | 94 | 1013.2 | |
| 20260509235018 | 50 | 68 | 1.0 | 3.0 | 0.13 | 0.63 | 0.63 | 94 | 1013.3 |
| 20260509234018 | 50 | 68 | 1.0 | 3.0 | 0.14 | 0.62 | 0.62 | 94 | 1013.5 |
| 20260509233019 | 50 | 0.0 | 0.0 | 0.12 | 0.58 | 0.58 | 94 | 1013.6 | |
| 20260509232018 | 50 | 0.0 | 1.0 | 0.13 | 0.57 | 0.57 | 94 | 1013.5 | |
| 20260509231018 | 50 | 0.0 | 2.0 | 0.11 | 0.54 | 0.54 | 94 | 1013.4 | |
| 20260509230018 | 50 | 90 | 1.0 | 2.0 | 0.11 | 0.52 | 0.52 | 93 | 1013.2 |
| 20260509225018 | 50 | 90 | 1.0 | 2.0 | 0.11 | 0.50 | 0.50 | 93 | 1012.9 |
| 20260509224018 | 50 | 90 | 2.0 | 3.0 | 0.10 | 0.48 | 0.48 | 93 | 1012.8 |
| 20260509223018 | 50 | 90 | 1.0 | 2.0 | 0.10 | 0.46 | 0.46 | 93 | 1013.0 |
| 20260509222019 | 50 | 0.0 | 3.0 | 0.09 | 0.44 | 0.44 | 93 | 1013.2 | |
| 20260509221019 | 50 | 0.0 | 0.0 | 0.11 | 0.43 | 0.43 | 93 | 1012.9 | |
| 20260509220018 | 50 | 0.0 | 1.0 | 0.13 | 0.41 | 0.41 | 92 | 1013.0 | |
| 20260509215019 | 50 | 0.0 | 2.0 | 0.15 | 0.39 | 0.39 | 92 | 1013.1 | |
| 20260509214018 | 51 | 0.0 | 2.0 | 0.21 | 0.38 | 0.38 | 92 | 1013.0 | |
| 20260509213018 | 51 | 68 | 1.0 | 2.0 | 0.24 | 0.36 | 0.36 | 92 | 1013.1 |
| 20260509212018 | 51 | 270 | 1.0 | 4.0 | 0.27 | 0.35 | 0.35 | 92 | 1013.0 |
| 20260509211018 | 51 | 293 | 1.0 | 3.0 | 0.27 | 0.32 | 0.32 | 91 | 1012.8 |
| 20260509210018 | 51 | 68 | 1.0 | 4.0 | 0.24 | 0.28 | 0.28 | 91 | 1012.7 |
| 20260509205118 | 52 | 0.0 | 2.0 | 0.20 | 0.24 | 0.24 | 90 | 1013.0 | |
| 20260509204018 | 52 | 0.0 | 2.0 | 0.13 | 0.17 | 0.17 | 90 | 1012.8 | |
| 20260509203018 | 52 | 0.0 | 0.0 | 0.08 | 0.12 | 0.12 | 90 | 1012.8 | |
| 20260509202018 | 52 | 0.0 | 0.0 | 0.04 | 0.08 | 0.08 | 90 | 1012.9 | |
| 20260509201038 | 52 | 0.0 | 2.0 | 0.01 | 0.05 | 0.05 | 90 | 1012.8 | |
| 20260509200018 | 52 | 0.0 | 0.0 | 0.00 | 0.04 | 0.04 | 90 | 1013.0 | |
| 20260509195018 | 52 | 90 | 1.0 | 3.0 | 0.00 | 0.04 | 0.04 | 90 | 1012.9 |
| 20260509194018 | 52 | 0.0 | 1.0 | 0.00 | 0.04 | 0.04 | 90 | 1012.7 | |
| 20260509193038 | 52 | 315 | 1.0 | 2.0 | 0.00 | 0.04 | 0.04 | 90 | 1013.0 |
| 20260509192018 | 52 | 293 | 1.0 | 2.0 | 0.00 | 0.04 | 0.04 | 90 | 1013.0 |
| 20260509191018 | 52 | 270 | 1.0 | 3.0 | 0.00 | 0.04 | 0.04 | 91 | 1013.0 |
| 20260509190018 | 52 | 90 | 3.0 | 6.0 | 0.00 | 0.04 | 0.04 | 90 | 1013.1 |
| 20260509185018 | 52 | 113 | 1.0 | 3.0 | 0.00 | 0.04 | 0.04 | 91 | 1012.9 |
| 20260509184018 | 51 | 113 | 3.0 | 7.0 | 0.00 | 0.04 | 0.04 | 90 | 1012.9 |
| 20260509183018 | 52 | 68 | 2.0 | 6.0 | 0.00 | 0.04 | 0.04 | 90 | 1013.0 |
| 20260509182018 | 52 | 90 | 1.0 | 6.0 | 0.00 | 0.04 | 0.04 | 90 | 1013.1 |
| 20260509181018 | 52 | 68 | 2.0 | 4.0 | 0.00 | 0.04 | 0.04 | 90 | 1013.4 |
| 20260509180018 | 52 | 90 | 2.0 | 7.0 | 0.00 | 0.04 | 0.04 | 90 | 1013.9 |
| 20260509175017 | 52 | 68 | 2.0 | 4.0 | 0.00 | 0.04 | 0.04 | 90 | 1014.0 |
| 20260509174038 | 52 | 0.0 | 2.0 | 0.00 | 0.04 | 0.04 | 90 | 1014.1 | |
| 20260509173018 | 52 | 293 | 2.0 | 4.0 | 0.00 | 0.04 | 0.04 | 91 | 1014.2 |
| 20260509172017 | 52 | 45 | 1.0 | 2.0 | 0.00 | 0.04 | 0.04 | 91 | 1014.1 |
| 20260509171019 | 51 | 90 | 3.0 | 8.0 | 0.00 | 0.04 | 0.04 | 91 | 1013.8 |
| 20260509170019 | 51 | 90 | 1.0 | 3.0 | 0.00 | 0.04 | 0.04 | 91 | 1014.2 |
| 20260509165019 | 51 | 90 | 1.0 | 3.0 | 0.00 | 0.04 | 0.04 | 91 | 1014.2 |
| 20260509164019 | 51 | 90 | 2.0 | 7.0 | 0.00 | 0.04 | 0.04 | 91 | 1014.3 |
| 20260509163039 | 50 | 90 | 1.0 | 2.0 | 0.00 | 0.04 | 0.04 | 91 | 1014.4 |
| 20260509162019 | 50 | 68 | 1.0 | 4.0 | 0.00 | 0.04 | 0.04 | 91 | 1014.4 |
| 20260509161019 | 49 | 113 | 2.0 | 3.0 | 0.01 | 0.04 | 0.04 | 90 | 1014.5 |
| 20260509160019 | 49 | 68 | 2.0 | 4.0 | 0.01 | 0.04 | 0.04 | 90 | 1014.6 |
| 20260509155019 | 49 | 68 | 3.0 | 6.0 | 0.01 | 0.04 | 0.04 | 90 | 1014.6 |
| 20260509154019 | 49 | 113 | 2.0 | 6.0 | 0.01 | 0.04 | 0.04 | 90 | 1014.6 |
| 20260509153019 | 48 | 68 | 2.0 | 7.0 | 0.01 | 0.04 | 0.04 | 90 | 1014.4 |
| 20260509152019 | 49 | 68 | 2.0 | 5.0 | 0.02 | 0.04 | 0.04 | 90 | 1014.4 |
| 20260509151100 | 49 | 68 | 1.0 | 3.0 | 0.01 | 0.03 | 0.03 | 90 | 1014.5 |
| 20260509150019 | 48 | 90 | 1.0 | 4.0 | 0.01 | 0.03 | 0.03 | 90 | 1014.8 |
| 20260509145019 | 48 | 90 | 1.0 | 2.0 | 0.01 | 0.03 | 0.03 | 90 | 1014.9 |